Regional Weather Roundup
Issued by NWS

Home | Current Version | Previous Version | Text Only | Print | Product List | Glossary On
Versions: 1 2 3 4 5 6 7 8 9 10 11 12 13 14 15 16 17 18 19 20 21 22 23 24 25 26 27 28 29 30 31 32 33 34 35 36 37 38 39 40 41 42 43 44 45 46 47 48 49
000
ASUS45 KREV 071110
RWRNV
NEVADA REGIONAL WEATHER ROUNDUP
NATIONAL WEATHER SERVICE RENO NV
300 AM PST SUN FEB 07 2016

NOTE: "FAIR" INDICATES FEW OR NO CLOUDS BELOW 12,000 FEET WITH NO
SIGNIFICANT WEATHER AND/OR OBSTRUCTIONS TO VISIBILITY.

NVZ001-003-004-071200-
WESTERN NEVADA

CITY           SKY/WX    TMP DP  RH WIND       PRES   REMARKS
RENO           PTCLDY    28  24  85 S5        30.50R
CARSON CITY    FAIR      28  27  93 NW3       30.50R
MINDEN         FAIR      27  27 100 CALM      30.50S
SLIDE MTN        N/A     32  10  40 E23         N/A
PYRAMID LAKE     N/A     39 N/A N/A S2          N/A
FALLON         CLEAR     27  25  92 CALM      30.50R
LOVELOCK       CLEAR     22  19  89 CALM      30.50S
HAWTHORNE      CLEAR     32  30  93 W5        30.51R
$$

NVZ002-CAZ072-073-071200-
NORTHERN AND CENTRAL SIERRA

CITY           SKY/WX    TMP DP  RH WIND       PRES   REMARKS
S. LAKE TAHOE  CLEAR     22  19  89 S5        30.46F
TRUCKEE        CLEAR     21  21 100 SW3       30.50R
SQUAW VLY 8000   N/A     34  19  55 N1          N/A
SUSANVILLE     CLEAR    N/A N/A N/A W3        30.50R
BLUE CANYON    CLEAR     46  18  32 NE7       30.40S
MAMMOTH LAKES  FAIR      25  18  74 CALM      30.49R
BRIDGEPORT     FAIR      22  16  78 CALM      30.48S
$$

NVZ030-031-036-071200-
NORTHERN NEVADA

CITY           SKY/WX    TMP DP  RH WIND       PRES   REMARKS
ELKO           PTCLDY     9   5  84 E3        30.55R
WINNEMUCCA     CLEAR     28  23  81 NE8       30.51R
WENDOVER       MOCLDY    25  19  80 NW3       30.53R
$$

NVZ035-037-071200-
CENTRAL NEVADA

CITY           SKY/WX    TMP DP  RH WIND       PRES   REMARKS
ELY            PTCLDY     6   0  76 S14       30.47R WCI -11
EUREKA           N/A      1   1 100 SW9       30.50R
$$

NVZ013-014-071200-
SOUTH CENTRAL NEVADA

CITY           SKY/WX    TMP DP  RH WIND       PRES   REMARKS
TONOPAH        PTCLDY    21  13  71 N9        30.45F
$$

NVZ017-020-022-071200-
SOUTHERN NEVADA

CITY           SKY/WX    TMP DP  RH WIND       PRES   REMARKS
LAS VEGAS      CLEAR     44  25  47 SW5       30.31S
N. LAS VEGAS   CLEAR     47  25  42 N7        30.34S
NELLIS AFB     CLEAR     43  28  55 N2        30.34F
HENDERSON      CLEAR     39  25  57 SE5       30.36F
MERCURY        CLEAR     44  21  40 NE12      30.35F
$$



USA.gov is the U.S. government's official web portal to all federal, state and local government web resources and services.